SPACEBEE-69 (48631 NORAD) Tracking and Keplerian Element Data

This shows tracking and keplerian element data for the satellite.

Feedback or suggestion? Click here.




ElementValue
Catalog48631
NameSPACEBEE-69
Epoch Orbit4006
Epoch Day287.39756029
Epoch Year2021
RAAN341.7472
Inclination97.2449
Eccentricity0.0016504
Argument of Perigee44.288
Mean Anonmoly315.967
Mean Motion15.15489803
Decay Rate5.15E-05
L11 48631U 21006EX 21287.39756029 .00005150 00000-0 27447-3 0 9990
L22 48631 97.2449 341.7472 0016504 44.2880 315.9670 15.15489803 40064

Live tracking and technical data element details for SPACEBEE-69 (NORAD 48631). SPACEBEE-69 can be tracked NOW for your location showing map with azimuth and elevation plus other details from your city location.

Track the satellite on the map from your city or location and see movement details for azimuth, elevation, latitude, longitude, range, height, and movement on the map or in text.







IsCatalogInMostPopularTable: catalog: 48631, numindb: 35
Update: records affected: 1



GetName: 48631 SPACEBEE-69

Hit Count: updated at: Tue, 19 Oct 2021 09:44:08 GMT